www.pogodaiklimat.ru

Погода и климат >> Архив погоды >> Россия >> Кировская область >> Кумены


ПОГОДА в Кумене

  • Прогноз погоды в Кумене
  • Монитор погоды в Кумене
  • Климат города

АРХИВ ПОГОДЫ в Кумене

Время (UTC), дата Ветер
(напр.,м/с)
 
Видим.   Явления Облачность Т
(С)
Тd
(С)
f
(%)
Тe
(С)
Тes
(С)
Комфортность P
(гПа)
Po
(гПа)
Тmin
(С)
Tmax
(С)
R
(мм)
R24
(мм)
S
(см)
09 12.12 Ю 1-3
{4}
13 км слабый снег 10/0
[As op]
-4.5 -6.1 89 -7 -7 1024.1 1001.4
12 12.12 Ю 2-3
{4}
12 км слабый ливневой снег 10/10 600 м
[Sc As op]
-4.0 -5.5 89 -8 -8 1023.6 1000.9
15 12.12 Ю 1-3
{3}
4000 м слабый ливневой снег 10/10 600 м
[Cb cap]
-3.9 -5.4 89 -6 -6 1023.3 1000.6 -3.9 0.4
18 12.12 Ю 1-2
{4}
4000 м слабый ливневой снег 10/10 300 м
[Cb cap]
-3.8 -5.0 91 -6 -6 1023.3 1000.7
21 12.12 штиль 0
{2}
4000 м слабый ливневой снег 10/10 300 м
[Cb cap]
-3.8 -4.6 94 -5 -5 1023.3 1000.7
00 13.12 С 1-3
{3}
4000 м слабый ливневой снег 10/10 300 м
[Cb cap]
-3.9 -5.1 91 -6 -6 1024.2 1001.5
03 13.12 СВ 2-2
{3}
10 км в посл. час ливневой снег 10/10 600 м
[Cb cap]
-4.0 -5.2 91 -8 -8 1024.5 1001.8 -4.1 4 28
06 13.12 СВ 2-3
{4}
6000 м слабый ливневой снег 10/10 300 м
[Cb cap]
-4.0 -5.2 91 -8 -8 1026.1 1003.3
09 13.12 СВ 3-6
{7}
13 км {ливн. осадки} 10/10 300 м
[Cb cap]
-3.5 -4.6 92 -9 -9 1027.0 1004.3
12 13.12 СВ 3-6
{8}
13 км {ливн. осадки} 10/10 300 м
[Cb cap]
-4.4 -6.0 89 -10 -10 1028.7 1005.9
15 13.12 СВ 3-5
{7}
10 км 10/10 300 м
[Cb cap]
-4.7 -6.0 91 -10 -10 1030.2 1007.4 -3.3 0.6
18 13.12 СВ 3-5
{6}
10 км 10/10 600 м
[Cb cap]
-4.1 -5.7 89 -10 -10 1031.4 1008.5
21 13.12 В 3-7
{8}
10 км 10/10 600 м
[Cb cap]
-4.1 -5.7 89 -10 -10 1032.2 1009.3
00 14.12 В 2-5
{7}
10 км 10/10 600 м
[Cb cap]
-3.9 -5.4 89 -8 -8 1032.3 1009.4
03 14.12 СВ 3-6
{7}
10 км 10/10 600 м
[Cb cap]
-5.0 -6.0 93 -11 -11 1032.3 1009.3 -5.1 28
06 14.12 СВ 3-4
{6}
15 км 10/10 600 м
[Cb cap]
-5.8 -6.5 95 -12 -12 1032.0 1009.0 -5.8
09 14.12 В 3-4
{7}
13 км {снег} 10/0
[As op]
-6.4 -7.6 91 -12 -12 1032.6 1009.5
12 14.12 СВ 3-5
{6}
19 км {снег} 10/0
[As op]
-6.0 -6.8 94 -12 -12 1032.1 1009.0
15 14.12 СВ 3-6
{6}
10 км 10/0
[As op]
-7.3 -8.2 93 -13 -13 1031.8 1008.6 -5.0 0.1
18 14.12 СВ 3-4
{6}
10 км 10/0
[As op]
-7.6 -8.5 93 -13 -13 1031.3 1008.1
21 14.12 СВ 2-3
{6}
10 км 10/0
[As op]
-8.1 -9.1 92 -13 -13 1031.2 1007.9
00 15.12 СВ 2-3
{5}
10 км 10/0
[As op]
-9.4 -10.6 91 -14 -14 1031.5 1008.1
03 15.12 СВ 2-3
{5}
10 км 10/0
[As op]
-11.9 -12.5 95 -16 -16 1031.9 1008.3 -12.0 26
06 15.12 С 2-3
{3}
1800 м дымка 10/10 300 м
[St]
-11.6 -12.4 94 -16 -16 1032.6 1009.0 -12.4
09 15.12 С 1-2
{3}
8000 м дымка 10/8 600 м
[Sc Ac As]
-10.8 -11.4 95 -13 -13 1032.8 1009.3
12 15.12 СЗ 1-2
{2}
15 км 9/0
[Ac trans]
-10.7 -12.0 90 -13 -13 1033.0 1009.5
15 15.12 СЗ 1-2
{2}
10 км 10/0
[Ci fib]
-12.4 -13.7 90 -15 -15 1033.5 1009.9 -10.5
18 15.12 СЗ 2-3
{3}
10 км 10/0
[Ci fib]
-11.3 -12.6 90 -16 -16 1033.5 1009.9
21 15.12 СЗ 1-2
{3}
10 км 10/0
[As op]
-10.6 -11.9 90 -13 -13 1033.6 1010.1
00 16.12 СЗ 2-3
{3}
10 км 10/0
[As op]
-10.4 -11.7 90 -15 -15 1034.1 1010.6
03 16.12 СЗ 1-2
{2}
10 км 10/0
[As op]
-9.5 -10.7 91 -12 -12 1034.7 1011.3 -12.4 26
06 16.12 СЗ 1-1
{2}
10 км 10/0
[As op]
-8.8 -10.3 89 -11 -11 1035.6 1012.2
09 16.12 З 1-1
{2}
800 м туман ?/? -7.0 -7.0 100 -10 -10 1036.2 1012.9
12 16.12 СЗ 1-2
{2}
1900 м дымка {туман} 10/10 300 м
[St]
-6.0 -6.8 94 -8 -8 1036.2 1013.0
15 16.12 СЗ 1-1
{2}
1000 м дымка 10/10 300 м
[St]
-5.1 -5.8 95 -8 -8 1036.4 1013.3 -5.1
18 16.12 СЗ 1-1
{2}
10 км {туман} 10/9 300 м
[Frnb As trans]
-4.7 -5.0 98 -7 -7 1036.5 1013.5
21 16.12 З 1-1
{1}
10 км 10/0
[As op]
-4.9 -5.2 98 -7 -7 1036.8 1013.7
00 17.12 штиль 0
{1}
10 км 10/0
[As op]
-4.8 -5.1 98 -6 -6 1036.7 1013.7
03 17.12 З 1-2
{3}
10 км 10/0
[As op]
-5.1 -5.4 98 -8 -8 1036.1 1013.0 -5.2 26
06 17.12 З 1-2
{3}
18 км 10/0
[As op]
-6.5 -7.0 96 -9 -9 1036.3 1013.1 -6.8
09 17.12 З 1-3
{3}
18 км 10/10 600 м
[Cb cap]
-6.8 -7.3 96 -9 -9 1036.0 1013.0
12 17.12 З 1-3
{3}
18 км 10/10 600 м
[Sc]
-8.5 -9.2 95 -11 -11 1034.3 1011.0
15 17.12 З 1-2
{3}
10 км 10/10 600 м
[Sc]
-10.4 -10.4 100 -13 -13 1036.2 1012.7 -5.1
18 17.12 СЗ 1-2
{3}
10 км 10/10 600 м
[Sc]
-12.3 -12.9 95 -15 -15 1036.8 1013.0
21 17.12 СЗ 1-1
{2}
10 км 10/10 600 м
[Sc]
-14.6 -15.9 90 -17 -17 1037.4 1013.5
00 18.12 СЗ 1-1
{1}
10 км ясно -17.9 -19.8 85 -21 -21 1038.2 1013.9
03 18.12 СЗ 1-1
{1}
10 км ясно -19.6 -20.8 90 -23 -23 1038.4 1013.9 -19.6 26
06 18.12 штиль 0
{1}
20 км ясно -19.7 -20.9 90 -20 -20 1038.8 1014.3 -19.7
09 18.12 штиль 0
{1}
22 км 10/0
[Ci fib]
-17.2 -18.4 90 -17 -17 1038.8 1014.6
12 18.12 СЗ 1-1
{1}
18 км 10/0
[As op]
-15.3 -16.6 90 -18 -18 1038.6 1014.6
15 18.12 штиль 0
{1}
10 км 10/0
[As op]
-15.3 -16.6 90 -15 -15 1039.4 1015.4 -15.3
18 18.12 З 1-1
{1}
10 км 10/0
[As op]
-14.6 -15.2 95 -17 -17 1039.4 1015.5
21 18.12 штиль 0
{1}
10 км 10/0
[As op]
-16.5 -18.4 85 -17 -17 1039.9 1015.8
00 19.12 штиль 0
{1}
10 км 10/0
[Ci fib]
-18.5 -20.4 85 -19 -19 1040.5 1016.2
03 19.12 штиль 0
{1}
10 км 10/0
[Ci sp]
-17.4 -18.6 90 -17 -17 1041.2 1017.0 -18.9 25

 

Местоположение метеостанции Кумены (Кировская область, Россия): широта 58.10 долгота 49.92 высота над уровнем моря 177 м.

В архиве по умолчанию представлена погода в Кумене за последнюю неделю. Архивные данные за месяц целиком и за предыдущие месяцы, начиная с января 2011 года, Вы можете получить, выбрав интересующий диапазон дат из раскрывающегося списка и нажав кнопку "Ввод!".


*Определитесь, кто Вы:
робот инопланетянин человек

Внимание! Время в таблицах - всемирное. Для получения местного времени необходимо прибавить поправку, которая в Кумене равна 3 ч.

Смотрите также архив погоды в соседних городах и на ближайших метеорологических станциях:

Погода в Кирове (Кировская область, Россия) (58 км)
Погода в Нолинске (Кировская область, Россия) (61 км)
Погода в Котельниче (Кировская область, Россия) (95 км)
Погода в Белой Холунице (Кировская область, Россия) (98 км)
Погода в Фаленках (Кировская область, Россия) (101 км)
Погода в Унях (Кировская область, Россия) (101 км)
Погода в Уржуме (Кировская область, Россия) (109 км)
Погода в Даровском (Кировская область, Россия) (136 км)
Погода в Новом Торьяле (Марий-Эл, Россия) (141 км)
Погода в Яранске (Кировская область, Россия) (144 км)

Пояснения к столбцам:

Ветер - указаны скорость ветра в м/с - средняя за 10 мин, порывы в срок и между сроками (в фигурных скобках) и направление, откуда дует ветер: С - северный, СВ - северо-восточный, В - восточный, ЮВ - юго-восточный, Ю - южный, ЮЗ - юго-западный, З - западный, СЗ - северо-западный.
Видимость - горизонтальная дальность видимости в метрах или километрах. При видимости от 1 до 10 км при отсутствии осадков обычно наблюдается дымка, при ухудшении видимости до 1 км и менее - туман. В сухую погоду видимость может ухудшаться дымом, пылью или мглою.
Явления - указаны атмосферные явления, наблюдавшиеся в срок или в последний час перед сроком; фигурными скобками обозначены явления, наблюдавшиеся между сроками (за 1-3 часа до срока); квадратными скобками обозначены град или гололедные отложения с указанием их диаметра в мм.
Облачность - указаны через наклонную черту общая и нижняя облачность в баллах и высота нижней границы облаков в метрах; квадратными скобками обозначены формы облаков: Ci - перистые, Cs - перисто-слоистые, Cc - перисто-кучевые, Ac - высококучевые, As - высокослоистые, Sc - слоисто-кучевые, Ns - слоисто-дождевые, Cu - кучевые, Cb - кучево-дождевые. Подробнее классификацию облаков см. в Атласе облаков (PDF).
T - Температура воздуха - температура, измеренная на высоте 2 м над землей.
Td - Температура точки росы - температура, при понижении до которой содержащийся в воздухе водяной пар достигнет насыщения.
f - Относительная влажность воздуха - влажноcть воздуха, измеренная на высоте 2 м над землей.
Te - Эффективная температура - температура, которую ощущает одетый по сезону человек в тени. Характеристика душности погоды. При расчете учитывается влияние влажности воздуха и скорости ветра на теплоощущения человека.
Tes - Эффективная температура на солнце - температура, которую ощущает человек, с поправкой на солнечный нагрев. Характеристика знойности погоды. Зависит от высоты солнца над горизонтом, облачности и скорости ветра. Ночью, в пасмурную погоду, а также при ветре 12 м/с и более поправка равна нулю.
P - Атмосферное давление - приведенное к уровню моря атмосферное давление.
Po - Атмосферное давление - измеренное на уровне метеостанции атмосферное давление.
Tmin - Минимальная температура - минимум температуры воздуха на высоте 2 м над землей.
Tmax - Максимальная температура - максимум температуры воздуха на высоте 2 м над землей.
R - Количество осадков - Количество выпавших осадков за период времени, мм. При наведении курсора мыши на число - период времени, за который выпало указанное количество осадков.
R24 - Количество осадков - Количество выпавших осадков за 24 часа, мм.
S - Снежный покров - Высота снежного покрова, см. При наведении курсора мыши на число - состояние снежного покрова и степень покрытия местности в баллах.